Lid_Strength_Index
1 1 1 2 2 1 1 2 2 2 3 3 3 4 5 4 5 5 5 6 6 6
1 1 1 2 2 1 2 3 3 3 4 4 4 4 5 5 5 5 6 6 6 6
1 1 1 2 2 2 2 3 4 4 4 4 5 5 5 5 5 6 6 6 7 7
1 1 1 1 2 2 3 4 4 4 5 5 5 5 6 6 6 6 7 7 7 7
1 2 2 2 2 3 3 4 4 5 5 5 6 6 6 6 6 7 8 7 7 7
2 2 2 2 1 1 3 5 5 5 6 6 6 7 6 6 7 7 7 7 6 6
2 2 2 2 2 2 3 5 5 5 6 6 6 7 6 8 8 8 7 6 6 7
2 2 3 3 5 5 6 6 6 6 6 7 7 7 8 8 8 7 7 7 7 7
3 3 4 5 5 6 6 6 7 7 8 8 8 10 9 8 8 7 7 8 8 8
5 5 5 6 6 7 8 8 9 9 9 9 8 9 9 9 8 8 8 9 9 8
6 7 7 7 8 9 9 8 9 10 8 8 8 9 9 9 9 9 9 10 11 12
8 8 8 9 9 10 10 9 9 8 8 8 9 9 10 9 9 11 12 13 13 14
9 10 11 12 11 10 9 10 9 10 10 10 10 10 10 10 12 15 16 16 15 14
10 11 10 10 10 10 10 9 10 11 12 12 11 12 12 12 16 16 16 17 16 16